THORAD AGENA D DEB, 42511

Orbit data source: Space-Track

THORAD AGENA D DEB, 42511 is space debris in SSO originally from a launch on Wed, 08 Apr 1970 UTC launched from the Air Force Western Test Range (AFWTR). Debris objects in space refer to the collection of defunct objects orbiting the Earth. Examples of debris include non-operational satellites, rocket bodies, and fragments generated from explosions, collisions, or faulty payload assembly.

Loading next visibility...
Identifier
42511, 1970-025RR
Orbit
SSO
Country
Flag of USUS
Related business
Manufacturer
Unknown
Mission
Spacecraft
Bus & Motor
Unknown
Mass
Unknown
Launch date (UTC)
1970-04-08 (56 years ago)
Launch vehicle
Unknown
Launch site
Air Force Western Test Range (AFWTR)
Object type
Payload
Rocket body
Debris
Shape & HBR
Unknown shape, 0.1 m
Radar Cross Section
Small (<0.1 m²)

Expand to show TLE details & history
Last TLE update: 3 days ago

TLE from 3 days ago
0 THORAD AGENA D DEB
1 42511U 70025RR  25338.52911638  .00000981  00000-0  32282-2 0  9990
2 42511 100.1811 250.7477 0458280  61.3225 303.3144 12.72591335558212
Epoch: 2025-12-04T12:41Z
TLE epoch observation values (Epoch: 2025-12-04T12:41:55.655Z)
Latitude
-0.00003°
Longitude
-13.31844°
Altitude
1,190.775 km
Speed
7.344 km/s
True Right ascension
16h 42m 59s
True Declination
0° 00' 00"
Sunlit
Object was in daylight at epoch
Visualization orbit readout
Latitude
Unknown
Longitude
Unknown
Altitude
Unknown
Speed
Unknown
Apparent Right ascension
Unknown
Apparent Declination
Unknown
Sunlit
N/A
Visualization observer readout
Local Sidereal Time
12:50:28
Azimuth
Unknown
Elevation
Unknown
Doppler factor
Unknown
Orbital elements
Apogee altitude
1,723.852 km
Perigee altitude
1,013.796 km
Semi-major axis
7,746.961 km
Eccentricity
0.04583
Inclination
100.1811°
RAAN
250.7477°
Arg. of periapsis
61.3225°
True anomaly
298.78824°
Mean anomaly
303.3144°
Eccentric anomaly
301.06523°
Mean motion
3.18307 °/min
Orbital period
113.1 mins
BSTAR
0.0032282

Documentation

Showing up to 5 results
|